Location: *
(45.4590°N, 16.3650°E)
Time: 21:13:44
(UTC+00:00)

Cosmos 2297 Rocket - Pass Details

Date: 17 January 2020
Orbit: 838 x 845 km, 71.0° (Epoch: 17 February)

Event Time Altitude Azimuth Distance (km) Brightness Sun altitude
Rises 17:40:18 0° 185° (S) 3,377 5.5 -20.8°
Reaches altitude 10° 17:42:49 10° 179° (S) 2,448 4.7 -21.2°
Maximum altitude 17:48:08 46° 108° (ESE) 1,127 2.4 -22.1°
Enters shadow 17:48:13 45° 105° (ESE) 1,127 2.4 -22.1°
